POD1 KEGE-KGCN

Flight info

Callsign POD1
Flight time 0h 55m
Altitude 40000
Route BEVVR1 SPRKT JNC KUHVC TOADD
Aircraft CL60/M-SBDE1E2E3FGHIJ1J3J4J5J7M3P2RWXYZ/LB1V1D1

Departure

Time 2026-05-08 15:20
Airport Eagle County Regional Airport (KEGE)

Arrival

Time 2026-05-08 16:15
Airport Grand Canyon National Park Airport (KGCN)
Time Latitude Longitude Altitude Speed Heading
2026-05-08 14:45 39.64127 -106.90904 6561 ft 0 kts 77°
2026-05-08 15:14 39.64127 -106.90902 6565 ft 0 kts 74°
2026-05-08 15:15 39.64135 -106.90894 6565 ft 4 kts 15°
2026-05-08 15:15 39.64183 -106.90912 6565 ft 7 kts 335°
2026-05-08 15:15 39.64241 -106.90904 6565 ft 10 kts 68°
2026-05-08 15:15 39.64254 -106.90797 6565 ft 14 kts 82°
2026-05-08 15:16 39.64270 -106.90650 6565 ft 18 kts 81°
2026-05-08 15:16 39.64289 -106.90476 6565 ft 21 kts 82°
2026-05-08 15:16 39.64311 -106.90276 6565 ft 24 kts 82°
2026-05-08 15:16 39.64334 -106.90067 6565 ft 12 kts 75°
2026-05-08 15:17 39.64350 -106.90028 6566 ft 0 kts 48°
2026-05-08 15:17 39.64351 -106.90027 6566 ft 2 kts 46°
2026-05-08 15:18 39.64411 -106.90020 6566 ft 12 kts 348°
2026-05-08 15:18 39.64444 -106.90073 6566 ft 0 kts 257°
2026-05-08 15:19 39.64444 -106.90076 6566 ft 4 kts 259°
2026-05-08 15:19 39.64399 -106.90482 6566 ft 91 kts 262°
2026-05-08 15:19 39.64272 -106.91637 6591 ft 162 kts 262°
2026-05-08 15:20 39.63915 -106.93086 7181 ft 179 kts 235°
2026-05-08 15:20 39.62973 -106.94188 7944 ft 195 kts 214°
2026-05-08 15:20 39.61757 -106.95213 8598 ft 223 kts 214°
2026-05-08 15:20 39.60423 -106.96375 9421 ft 240 kts 217°
2026-05-08 15:21 39.59066 -106.97719 10318 ft 251 kts 227°
2026-05-08 15:21 39.58157 -106.99604 11351 ft 253 kts 256°
2026-05-08 15:21 39.57996 -107.01804 12525 ft 251 kts 274°
2026-05-08 15:21 39.58074 -107.04040 13633 ft 252 kts 276°
2026-05-08 15:22 39.58445 -107.06187 14718 ft 249 kts 298°
2026-05-08 15:22 39.59460 -107.07940 15775 ft 247 kts 316°
2026-05-08 15:22 39.60712 -107.09449 16757 ft 249 kts 318°
2026-05-08 15:22 39.62135 -107.10675 17692 ft 252 kts 337°
2026-05-08 15:23 39.63860 -107.11058 18581 ft 261 kts 360°
2026-05-08 15:23 39.65668 -107.10653 19405 ft 269 kts
2026-05-08 15:23 39.67506 -107.10413 20209 ft 266 kts 348°
2026-05-08 15:23 39.69232 -107.11286 20753 ft 275 kts 327°
2026-05-08 15:24 39.70672 -107.13009 21277 ft 291 kts 310°
2026-05-08 15:24 39.71595 -107.15438 21799 ft 313 kts 290°
2026-05-08 15:24 39.71685 -107.18353 22308 ft 341 kts 265°
2026-05-08 15:24 39.70785 -107.21310 22831 ft 364 kts 251°
2026-05-08 15:25 39.69614 -107.24282 23338 ft 375 kts 250°
2026-05-08 15:25 39.68409 -107.27322 23856 ft 385 kts 250°
2026-05-08 15:25 39.67167 -107.30447 24364 ft 395 kts 250°
2026-05-08 15:25 39.65882 -107.33669 24863 ft 404 kts 249°
2026-05-08 15:26 39.64570 -107.36951 25363 ft 412 kts 249°
2026-05-08 15:26 39.63250 -107.40242 25864 ft 419 kts 249°
2026-05-08 15:26 39.61897 -107.43610 26375 ft 424 kts 249°
2026-05-08 15:26 39.60521 -107.47031 26773 ft 432 kts 249°
2026-05-08 15:27 39.59114 -107.50522 27143 ft 440 kts 249°
2026-05-08 15:27 39.57684 -107.54063 27571 ft 445 kts 249°
2026-05-08 15:27 39.56244 -107.57622 28021 ft 448 kts 249°
2026-05-08 15:27 39.54789 -107.61211 28471 ft 451 kts 249°
2026-05-08 15:28 39.53338 -107.64785 28871 ft 455 kts 249°
2026-05-08 15:28 39.51844 -107.68463 29259 ft 458 kts 248°
2026-05-08 15:28 39.50345 -107.72146 29648 ft 461 kts 248°
2026-05-08 15:28 39.48828 -107.75871 30032 ft 463 kts 248°
2026-05-08 15:29 39.47315 -107.79574 30567 ft 461 kts 248°
2026-05-08 15:29 39.45816 -107.83237 31166 ft 458 kts 248°
2026-05-08 15:29 39.44299 -107.86943 31726 ft 455 kts 248°
2026-05-08 15:29 39.42821 -107.90550 32248 ft 453 kts 249°
2026-05-08 15:30 39.41313 -107.94224 32784 ft 450 kts 249°
2026-05-08 15:30 39.39824 -107.97851 33284 ft 448 kts 249°
2026-05-08 15:30 39.38337 -108.01468 33700 ft 448 kts 249°
2026-05-08 15:30 39.36860 -108.05058 34101 ft 447 kts 249°
2026-05-08 15:31 39.35384 -108.08641 34546 ft 447 kts 249°
2026-05-08 15:31 39.33890 -108.12265 35027 ft 445 kts 249°
2026-05-08 15:31 39.32407 -108.15854 35506 ft 444 kts 249°
2026-05-08 15:31 39.30962 -108.19350 35992 ft 441 kts 249°
2026-05-08 15:32 39.29501 -108.22879 36443 ft 439 kts 249°
2026-05-08 15:32 39.28046 -108.26391 36826 ft 439 kts 249°
2026-05-08 15:32 39.26622 -108.29823 37203 ft 438 kts 249°
2026-05-08 15:32 39.25185 -108.33287 37523 ft 437 kts 249°
2026-05-08 15:33 39.23744 -108.36753 37804 ft 437 kts 249°
2026-05-08 15:33 39.22302 -108.40219 38068 ft 437 kts 249°
2026-05-08 15:33 39.20873 -108.43649 38346 ft 437 kts 249°
2026-05-08 15:33 39.19428 -108.47115 38603 ft 436 kts 249°
2026-05-08 15:34 39.17987 -108.50568 38858 ft 436 kts 249°
2026-05-08 15:34 39.16548 -108.54008 39119 ft 435 kts 249°
2026-05-08 15:34 39.15113 -108.57438 39368 ft 434 kts 249°
2026-05-08 15:34 39.13684 -108.60847 39599 ft 433 kts 249°
2026-05-08 15:35 39.12268 -108.64226 39718 ft 434 kts 249°
2026-05-08 15:35 39.10804 -108.67715 39867 ft 435 kts 249°
2026-05-08 15:35 39.09364 -108.71142 40012 ft 436 kts 249°
2026-05-08 15:35 39.07906 -108.74581 40150 ft 438 kts 247°
2026-05-08 15:36 39.04916 -108.79985 40213 ft 452 kts 235°
2026-05-08 15:36 39.01848 -108.83742 40205 ft 463 kts 227°
2026-05-08 15:36 38.99367 -108.86427 40201 ft 465 kts 226°
2026-05-08 15:37 38.94425 -108.91775 40207 ft 467 kts 226°
2026-05-08 15:37 38.89426 -108.97177 40198 ft 466 kts 227°
2026-05-08 15:38 38.84450 -109.02546 40181 ft 465 kts 226°
2026-05-08 15:38 38.79482 -109.07897 40177 ft 464 kts 227°
2026-05-08 15:39 38.74564 -109.13185 40193 ft 464 kts 226°
2026-05-08 15:39 38.69604 -109.18509 40203 ft 465 kts 226°
2026-05-08 15:40 38.64648 -109.23819 40248 ft 465 kts 226°
2026-05-08 15:40 38.59690 -109.29122 40272 ft 465 kts 226°
2026-05-08 15:41 38.54718 -109.34430 40274 ft 465 kts 226°
2026-05-08 15:41 38.49749 -109.39725 40267 ft 465 kts 226°
2026-05-08 15:42 38.44787 -109.45003 40234 ft 466 kts 226°
2026-05-08 15:42 38.39817 -109.50279 40218 ft 465 kts 226°
2026-05-08 15:43 38.34822 -109.55572 40211 ft 464 kts 226°
2026-05-08 15:43 38.29845 -109.60838 40215 ft 465 kts 226°
2026-05-08 15:44 38.24864 -109.66097 40205 ft 465 kts 225°
2026-05-08 15:44 38.19887 -109.71343 40213 ft 466 kts 225°
2026-05-08 15:45 38.14889 -109.76601 40212 ft 466 kts 225°
2026-05-08 15:45 38.09821 -109.81792 40216 ft 467 kts 223°
2026-05-08 15:46 38.04645 -109.86793 40225 ft 467 kts 223°
2026-05-08 15:46 37.99506 -109.91753 40235 ft 466 kts 223°
2026-05-08 15:47 37.94338 -109.96735 40237 ft 466 kts 222°
2026-05-08 15:47 37.89147 -110.01728 40248 ft 466 kts 223°
2026-05-08 15:48 37.81382 -110.09183 40244 ft 466 kts 223°
2026-05-08 15:49 37.76224 -110.14123 40234 ft 467 kts 223°
2026-05-08 15:49 37.71063 -110.19059 40227 ft 468 kts 222°
2026-05-08 15:50 37.65848 -110.24039 39975 ft 473 kts 222°
2026-05-08 15:50 37.63211 -110.26553 39732 ft 474 kts 222°
2026-05-08 15:50 37.60613 -110.29027 39495 ft 473 kts 222°
2026-05-08 15:50 37.57963 -110.31547 39247 ft 471 kts 222°
2026-05-08 15:51 37.55342 -110.34038 39003 ft 470 kts 222°
2026-05-08 15:51 37.52728 -110.36520 38757 ft 470 kts 222°
2026-05-08 15:51 37.50118 -110.38998 38504 ft 470 kts 222°
2026-05-08 15:51 37.47535 -110.41446 38214 ft 471 kts 222°
2026-05-08 15:52 37.44894 -110.43948 37907 ft 472 kts 221°
2026-05-08 15:52 37.42278 -110.46424 37524 ft 473 kts 221°
2026-05-08 15:52 37.39624 -110.48933 37147 ft 473 kts 221°
2026-05-08 15:52 37.37018 -110.51395 36771 ft 473 kts 221°
2026-05-08 15:53 37.34378 -110.53887 36392 ft 473 kts 221°
2026-05-08 15:53 37.31772 -110.56345 36019 ft 473 kts 221°
2026-05-08 15:53 37.29129 -110.58835 35643 ft 474 kts 221°
2026-05-08 15:53 37.26466 -110.61343 35265 ft 475 kts 221°
2026-05-08 15:54 37.23844 -110.63808 34896 ft 477 kts 221°
2026-05-08 15:54 37.21149 -110.66341 34530 ft 478 kts 220°
2026-05-08 15:54 37.18504 -110.68824 34169 ft 478 kts 220°
2026-05-08 15:54 37.15836 -110.71326 33805 ft 478 kts 220°
2026-05-08 15:55 37.13178 -110.73817 33446 ft 478 kts 220°
2026-05-08 15:55 37.07872 -110.78781 32711 ft 473 kts 220°
2026-05-08 15:55 37.05225 -110.81255 32341 ft 470 kts 219°
2026-05-08 15:56 37.02600 -110.83705 31969 ft 467 kts 219°
2026-05-08 15:56 37.00010 -110.86121 31601 ft 465 kts 219°
2026-05-08 15:56 36.97418 -110.88536 31227 ft 462 kts 219°
2026-05-08 15:56 36.94854 -110.90924 30857 ft 459 kts 219°
2026-05-08 15:57 36.92294 -110.93306 30491 ft 457 kts 219°
2026-05-08 15:57 36.89753 -110.95669 30119 ft 454 kts 219°
2026-05-08 15:57 36.87222 -110.98019 29748 ft 451 kts 219°
2026-05-08 15:57 36.84721 -111.00340 29383 ft 449 kts 219°
2026-05-08 15:58 36.82214 -111.02666 29009 ft 446 kts 219°
2026-05-08 15:58 36.79732 -111.04965 28638 ft 443 kts 219°
2026-05-08 15:58 36.77288 -111.07227 28176 ft 442 kts 219°
2026-05-08 15:58 36.74838 -111.09493 27711 ft 434 kts 219°
2026-05-08 15:59 36.72434 -111.11715 27235 ft 427 kts 219°
2026-05-08 15:59 36.70064 -111.13902 26767 ft 420 kts 220°
2026-05-08 15:59 36.67736 -111.16051 26297 ft 414 kts 219°
2026-05-08 15:59 36.65443 -111.18165 25850 ft 407 kts 220°
2026-05-08 16:00 36.63176 -111.20253 25397 ft 402 kts 220°
2026-05-08 16:00 36.60973 -111.22282 24956 ft 396 kts 220°
2026-05-08 16:00 36.58755 -111.24323 24500 ft 391 kts 220°
2026-05-08 16:00 36.56581 -111.26322 24048 ft 386 kts 220°
2026-05-08 16:01 36.54412 -111.28315 23599 ft 381 kts 220°
2026-05-08 16:01 36.52301 -111.30254 23153 ft 377 kts 220°
2026-05-08 16:01 36.50211 -111.32171 22715 ft 372 kts 220°
2026-05-08 16:01 36.48149 -111.34063 22274 ft 372 kts 220°
2026-05-08 16:02 36.46067 -111.35972 21825 ft 371 kts 220°
2026-05-08 16:02 36.43985 -111.37879 21376 ft 369 kts 220°
2026-05-08 16:02 36.41925 -111.39764 20930 ft 367 kts 220°
2026-05-08 16:02 36.39875 -111.41640 20479 ft 364 kts 220°
2026-05-08 16:03 36.37841 -111.43499 20034 ft 362 kts 220°
2026-05-08 16:03 36.35815 -111.45349 19584 ft 360 kts 220°
2026-05-08 16:03 36.33816 -111.47173 19142 ft 358 kts 220°
2026-05-08 16:03 36.31815 -111.49000 18690 ft 356 kts 220°
2026-05-08 16:04 36.29940 -111.50933 18250 ft 349 kts 232°
2026-05-08 16:04 36.28439 -111.53277 17792 ft 345 kts 237°
2026-05-08 16:04 36.27015 -111.55654 17346 ft 342 kts 237°
2026-05-08 16:04 36.25655 -111.58061 16898 ft 339 kts 240°
2026-05-08 16:05 36.24379 -111.60452 16455 ft 336 kts 240°
2026-05-08 16:05 36.23079 -111.62869 16002 ft 333 kts 240°
2026-05-08 16:05 36.21804 -111.65229 15558 ft 330 kts 239°
2026-05-08 16:05 36.20526 -111.67590 15109 ft 327 kts 239°
2026-05-08 16:06 36.19274 -111.69903 14667 ft 325 kts 239°
2026-05-08 16:06 36.18024 -111.72208 14222 ft 323 kts 239°
2026-05-08 16:06 36.16781 -111.74500 13777 ft 321 kts 239°
2026-05-08 16:06 36.15531 -111.76804 13325 ft 319 kts 239°
2026-05-08 16:07 36.14303 -111.79063 12881 ft 318 kts 239°
2026-05-08 16:07 36.13082 -111.81311 12436 ft 316 kts 239°
2026-05-08 16:07 36.11862 -111.83555 11993 ft 315 kts 239°
2026-05-08 16:07 36.10629 -111.85820 11543 ft 313 kts 238°
2026-05-08 16:08 36.09417 -111.88045 11091 ft 312 kts 238°
2026-05-08 16:08 36.08223 -111.90237 10646 ft 310 kts 238°
2026-05-08 16:08 36.07016 -111.92450 10197 ft 308 kts 238°
2026-05-08 16:08 36.05825 -111.94633 9753 ft 307 kts 238°
2026-05-08 16:09 36.04625 -111.96832 9296 ft 305 kts 238°
2026-05-08 16:09 36.03863 -111.98283 8999 ft 303 kts 240°
2026-05-08 16:09 36.02484 -112.01234 8558 ft 294 kts 242°
2026-05-08 16:09 36.01492 -112.03394 8314 ft 285 kts 242°
2026-05-08 16:10 36.00538 -112.05489 8083 ft 271 kts 242°
2026-05-08 16:10 35.99824 -112.07540 8091 ft 251 kts 252°
2026-05-08 16:10 35.99270 -112.09533 8082 ft 236 kts 253°
2026-05-08 16:10 35.98768 -112.11371 8080 ft 219 kts 253°
2026-05-08 16:11 35.98297 -112.13095 8067 ft 203 kts 253°
2026-05-08 16:11 35.97850 -112.14733 8056 ft 205 kts 253°
2026-05-08 16:11 35.97392 -112.16409 8057 ft 205 kts 252°
2026-05-08 16:11 35.96649 -112.17890 8045 ft 207 kts 225°
2026-05-08 16:12 35.95548 -112.19038 8056 ft 207 kts 220°
2026-05-08 16:12 35.94402 -112.20155 8056 ft 208 kts 220°
2026-05-08 16:12 35.93270 -112.21247 8032 ft 204 kts 219°
2026-05-08 16:12 35.91989 -112.21828 7718 ft 192 kts 178°
2026-05-08 16:13 35.90878 -112.21120 7380 ft 176 kts 124°
2026-05-08 16:13 35.90720 -112.19714 7380 ft 170 kts 68°
2026-05-08 16:13 35.91407 -112.18704 7258 ft 169 kts 36°
2026-05-08 16:13 35.92299 -112.17805 7039 ft 159 kts 39°
2026-05-08 16:14 35.93111 -112.16963 6845 ft 149 kts 40°
2026-05-08 16:14 35.93890 -112.16127 6665 ft 149 kts 40°
2026-05-08 16:14 35.94665 -112.15301 6555 ft 141 kts 37°
2026-05-08 16:14 35.95295 -112.14636 6584 ft 89 kts 41°
2026-05-08 16:15 35.95625 -112.14287 6598 ft 27 kts 40°
2026-05-08 16:15 35.95667 -112.14176 6601 ft 13 kts 126°
2026-05-08 16:15 35.95644 -112.14092 6602 ft 10 kts 57°
2026-05-08 16:15 35.95704 -112.14024 6605 ft 12 kts 41°
2026-05-08 16:16 35.95776 -112.13949 6607 ft 14 kts 39°
2026-05-08 16:16 35.95856 -112.13863 6610 ft 13 kts 48°
2026-05-08 16:16 35.95838 -112.13831 6611 ft 0 kts 217°